Weather History for KASW - October, 2014

Change the Weather History Date:

Saturday, October 25, 2014

  Actual Average Record
Temperature  
Mean Temperature 58 °F -  
Max Temperature 68 °F 58 °F 81 °F (1963)
Min Temperature 48 °F 38 °F 20 °F (1960)
Degree Days  
Heating Degree Days 7    
Growing Degree Days 8 (Base 50)    
Moisture  
Dew Point 46 °F    
Average Humidity 72    
Maximum Humidity 100    
Minimum Humidity 26    
Precipitation  
Precipitation 0.00 in - - ()
Sea Level Pressure  
Sea Level Pressure 29.91 in    
Wind  
Wind Speed 5 mph (West)    
Max Wind Speed 20 mph    
Max Gust Speed 26 mph    
Visibility 8 miles    
Events      
Averages and records for this station are not official NWS values.
T = Trace of Precipitation, MM = Missing Value Source: NWS Daily Summary

Daily Weather History Graph

Daily Weather History Graph

Search for Another Location

Airport or City:

Trip Planner

Search our weather history database for the weather conditions in past years. The results will help you decide how hot, cold, wet, or windy it might be!

Date:

Astronomy

Oct. 25, 2014 Rise Set
Actual Time 8:06 AM EDT 6:47 PM EDT
Civil Twilight 7:38 AM EDT 7:16 PM EDT
Nautical Twilight 7:05 AM EDT 7:48 PM EDT
Astronomical Twilight 6:33 AM EDT 8:20 PM EDT
Moon 9:45 AM EDT (10/25) 8:09 PM EDT (10/25)
Length of Visible Light 11h 37m
Length of Day
10h 41m
Waxing Crescent, 3% of the Moon is Illuminated
Oct 25
Waxing Crescent
Oct 30
First Quarter
Nov 6
Full
Nov 14
Last Quarter
Nov 22
New

Hourly Weather History & Observations

Time (EDT) Temp. Dew Point Humidity Pressure Visibility Wind Dir Wind Speed Gust Speed Precip Events Conditions
12:15 AM 48.2 °F 46.4 °F 93% 29.97 in 7.0 mi Calm Calm - N/A   Clear
12:35 AM 50.0 °F 50.0 °F 100% 29.96 in 7.0 mi Calm Calm - N/A   Clear
12:55 AM 51.8 °F 50.0 °F 94% 29.96 in 10.0 mi Calm Calm - N/A   Clear
1:15 AM 51.8 °F 50.0 °F 94% 29.96 in 10.0 mi Calm Calm - N/A   Clear
1:35 AM 51.8 °F 50.0 °F 94% 29.96 in 10.0 mi Calm Calm - N/A   Clear
1:55 AM 50.0 °F 50.0 °F 100% 29.95 in 7.0 mi Calm Calm - N/A   Mostly Cloudy
2:15 AM 51.8 °F 50.0 °F 94% 29.97 in 7.0 mi WSW 3.5 mph - N/A   Overcast
2:35 AM 51.8 °F 50.0 °F 94% 29.96 in 7.0 mi Calm Calm - N/A   Overcast
2:55 AM 51.8 °F 50.0 °F 94% 29.95 in 7.0 mi SW 3.5 mph - N/A   Overcast
3:15 AM 53.6 °F 50.0 °F 88% 29.95 in 7.0 mi Calm Calm - N/A   Overcast
3:35 AM 53.6 °F 51.8 °F 94% 29.94 in 7.0 mi Calm Calm - N/A   Overcast
3:55 AM 53.6 °F 51.8 °F 94% 29.92 in 7.0 mi South 4.6 mph - N/A   Overcast
4:15 AM 53.6 °F 51.8 °F 94% 29.91 in 7.0 mi SSW 3.5 mph - N/A   Overcast
4:35 AM 53.6 °F 51.8 °F 94% 29.91 in 10.0 mi SSW 3.5 mph - N/A   Overcast
4:55 AM 55.4 °F 51.8 °F 88% 29.91 in 10.0 mi SSW 3.5 mph - N/A   Overcast
5:15 AM 55.4 °F 51.8 °F 88% 29.91 in 10.0 mi Calm Calm - N/A   Overcast
5:35 AM 53.6 °F 51.8 °F 94% 29.90 in 7.0 mi SSW 3.5 mph - N/A   Mostly Cloudy
5:55 AM 53.6 °F 51.8 °F 94% 29.91 in 7.0 mi WSW 4.6 mph - N/A   Scattered Clouds
6:15 AM 53.6 °F 51.8 °F 94% 29.92 in 7.0 mi WSW 5.8 mph - N/A   Mostly Cloudy
6:35 AM 53.6 °F 51.8 °F 94% 29.92 in 7.0 mi WSW 6.9 mph - N/A   Mostly Cloudy
6:55 AM 53.6 °F 51.8 °F 94% 29.92 in 7.0 mi SW 4.6 mph - N/A   Overcast
7:15 AM 53.6 °F 51.8 °F 94% 29.92 in 7.0 mi WSW 8.1 mph - N/A   Overcast
7:35 AM 53.6 °F 51.8 °F 94% 29.92 in 7.0 mi WSW 5.8 mph - N/A   Overcast
7:55 AM 51.8 °F 51.8 °F 100% 29.91 in 7.0 mi WSW 4.6 mph - N/A   Scattered Clouds
8:15 AM 51.8 °F 51.8 °F 100% 29.91 in 5.0 mi WSW 4.6 mph - N/A   Clear
8:35 AM 51.8 °F 51.8 °F 100% 29.91 in 4.0 mi WSW 4.6 mph - N/A   Clear
8:55 AM 51.8 °F 51.8 °F 100% 29.92 in 4.0 mi WSW 5.8 mph - N/A   Clear
9:15 AM 51.8 °F 51.8 °F 100% 29.92 in 4.0 mi WSW 4.6 mph - N/A   Clear
9:35 AM 53.6 °F 51.8 °F 94% 29.92 in 4.0 mi WSW 5.8 mph - N/A   Clear
9:55 AM 53.6 °F 51.8 °F 94% 29.92 in 4.0 mi WSW 6.9 mph - N/A   Clear
10:15 AM 55.4 °F 51.8 °F 88% 29.92 in 4.0 mi WSW 8.1 mph - N/A   Clear
10:35 AM 55.4 °F 53.6 °F 94% 29.92 in 5.0 mi West 6.9 mph - N/A   Scattered Clouds
10:55 AM 59.0 °F 53.6 °F 82% 29.92 in 5.0 mi West 8.1 mph - N/A   Clear
11:15 AM 60.8 °F 53.6 °F 77% 29.92 in 5.0 mi West 8.1 mph - N/A   Haze
11:35 AM 60.8 °F 55.4 °F 82% 29.92 in 7.0 mi West 11.5 mph - N/A   Clear
11:55 AM 62.6 °F 53.6 °F 72% 29.92 in 7.0 mi West 12.7 mph - N/A   Clear
12:15 PM 62.6 °F 55.4 °F 77% 29.92 in 7.0 mi West 11.5 mph - N/A   Clear
12:35 PM 62.6 °F 53.6 °F 72% 29.93 in 7.0 mi NW 15.0 mph - N/A   Clear
12:55 PM 62.6 °F 53.6 °F 72% 29.93 in 5.0 mi WNW 13.8 mph - N/A   Haze
1:15 PM 62.6 °F 53.6 °F 72% 29.94 in 5.0 mi WNW 12.7 mph - N/A   Haze
1:35 PM 62.6 °F 53.6 °F 72% 29.93 in 5.0 mi WNW 12.7 mph 19.6 mph N/A   Haze
1:55 PM 62.6 °F 53.6 °F 72% 29.92 in 5.0 mi NW 17.3 mph - N/A   Haze
2:15 PM 64.4 °F 53.6 °F 68% 29.91 in 7.0 mi West 12.7 mph 18.4 mph N/A   Scattered Clouds
2:35 PM 66.2 °F 51.8 °F 60% 29.90 in 10.0 mi WNW 12.7 mph - N/A   Clear
2:55 PM 68.0 °F 46.4 °F 46% 29.89 in 10.0 mi NW 15.0 mph - N/A   Clear
3:15 PM 68.0 °F 42.8 °F 40% 29.89 in 10.0 mi WNW 18.4 mph - N/A   Clear
3:35 PM 68.0 °F 42.8 °F 40% 29.89 in 10.0 mi WNW 15.0 mph 21.9 mph N/A   Clear
3:55 PM 68.0 °F 41.0 °F 37% 29.89 in 10.0 mi WNW 16.1 mph 21.9 mph N/A   Clear
4:15 PM 68.0 °F 35.6 °F 30% 29.89 in 10.0 mi WNW 16.1 mph 26.5 mph N/A   Clear
4:35 PM 68.0 °F 35.6 °F 30% 29.89 in 10.0 mi WNW 17.3 mph - N/A   Clear
4:55 PM 68.0 °F 32.0 °F 26% 29.89 in 10.0 mi WNW 19.6 mph 26.5 mph N/A   Clear
5:15 PM 68.0 °F 33.8 °F 28% 29.89 in 10.0 mi WNW 16.1 mph 25.3 mph N/A   Clear
5:35 PM 68.0 °F 33.8 °F 28% 29.88 in 10.0 mi WNW 15.0 mph 21.9 mph N/A   Clear
5:55 PM 66.2 °F 35.6 °F 32% 29.88 in 10.0 mi WNW 18.4 mph 24.2 mph N/A   Clear
6:15 PM 64.4 °F 35.6 °F 34% 29.88 in 10.0 mi WNW 12.7 mph 20.7 mph N/A   Clear
6:35 PM 62.6 °F 37.4 °F 39% 29.88 in 10.0 mi WNW 9.2 mph - N/A   Clear
6:55 PM 59.0 °F 37.4 °F 45% 29.88 in 10.0 mi WNW 8.1 mph - N/A   Clear
7:15 PM 55.4 °F 37.4 °F 51% 29.87 in 10.0 mi West 8.1 mph - N/A   Clear
7:35 PM 55.4 °F 37.4 °F 51% 29.88 in 10.0 mi West 8.1 mph - N/A   Clear
7:55 PM 53.6 °F 37.4 °F 54% 29.88 in 10.0 mi West 5.8 mph - N/A   Clear
8:15 PM 51.8 °F 37.4 °F 58% 29.89 in 10.0 mi WNW 6.9 mph - N/A   Clear
8:35 PM 51.8 °F 37.4 °F 58% 29.89 in 10.0 mi WNW 6.9 mph - N/A   Clear
8:55 PM 51.8 °F 37.4 °F 58% 29.89 in 10.0 mi WNW 8.1 mph - N/A   Clear
9:15 PM 51.8 °F 35.6 °F 54% 29.90 in 10.0 mi WNW 8.1 mph - N/A   Clear
9:35 PM 51.8 °F 35.6 °F 54% 29.90 in 10.0 mi WNW 8.1 mph - N/A   Clear
9:55 PM 51.8 °F 35.6 °F 54% 29.91 in 10.0 mi WNW 8.1 mph - N/A   Clear
10:15 PM 50.0 °F 35.6 °F 58% 29.91 in 10.0 mi WNW 9.2 mph - N/A   Clear
10:35 PM 50.0 °F 35.6 °F 58% 29.92 in 10.0 mi WNW 8.1 mph - N/A   Clear
10:55 PM 50.0 °F 35.6 °F 58% 29.92 in 10.0 mi WNW 8.1 mph - N/A   Clear
11:15 PM 50.0 °F 35.6 °F 58% 29.92 in 10.0 mi WNW 8.1 mph - N/A   Clear
11:35 PM 51.8 °F 35.6 °F 54% 29.92 in 10.0 mi WNW 8.1 mph - N/A   Clear
11:55 PM 51.8 °F 33.8 °F 50% 29.93 in 10.0 mi WNW 9.2 mph - N/A   Clear